Regional Weather Roundup
Issued by NWS

Home | Current Version | Previous Version | Text Only | Print | Product List | Glossary Off
Versions: 1 2 3 4 5 6 7 8 9 10 11 12 13 14 15 16 17 18 19 20 21 22 23 24 25 26 27 28 29 30 31 32 33 34 35 36 37 38 39 40 41 42 43 44 45 46 47 48 49 50

000
ASUS45 KPSR 261300
RWRAZ

ARIZONA REGIONAL HOURLY WEATHER ROUNDUP
NATIONAL WEATHER SERVICE PHOENIX AZ
600 AM MST SUN APR 26 2015

NOTE: FAIR INDICATES FEW OR NO CLOUDS BELOW 12,000 FEET WITH NO
SIGNIFICANT WEATHER AND/OR OBSTRUCTIONS TO VISIBILITY.

AZZ001>003-036-261400-
NORTHWEST ARIZONA

CITY           SKY/WX    TMP DP  RH WIND       PRES   REMARKS
KINGMAN        CLEAR     37  35  92 S3        29.84R
$$

AZZ004>008-015-016-018-261400-
NORTH CENTRAL ARIZONA

CITY           SKY/WX    TMP DP  RH WIND       PRES   REMARKS
GRAND CANYON   CLOUDY    34  34 100 NW5       29.80R WCI  30
WILLIAMS       LGT SNOW  34  32  93 NW8       29.87R WCI  27
PRESCOTT       CLOUDY    43  37  79 W7        29.80R
FLAGSTAFF      NOT AVBL
PAYSON         CLOUDY    41  39  93 CALM      29.81R
PAGE           PTCLDY    45  39  79 CALM      29.75R
$$

AZZ009>014-017-261400-
NORTHEAST ARIZONA

CITY           SKY/WX    TMP DP  RH WIND       PRES   REMARKS
WINSLOW        NOT AVBL
SAINT JOHNS    CLOUDY    41  34  76 SW8       29.76R
WINDOW ROCK    CLOUDY    36  34  92 E7        29.77R FOG     WCI  30
SHOW LOW       CLOUDY    34  32  93 S9        29.80R WCI  26
$$

AZZ023-261400-
GREATER PHOENIX AREA

CITY           SKY/WX    TMP DP  RH WIND       PRES   REMARKS
PHOENIX        CLOUDY    55  50  83 NW3       29.76R
DEER VALLEY    CLOUDY    53  49  86 CALM      29.78R
SCOTTSDALE     CLOUDY    54  50  86 N3        29.80S
CHANDLER       CLOUDY    57  50  77 SW12      29.79
$$

AZZ027-028-261400-
SOUTHWEST MARICOPA COUNTY AND PINAL COUNTY

CITY           SKY/WX    TMP DP  RH WIND       PRES   REMARKS
CASA GRANDE    CLOUDY    55  46  71 SW8       29.78R
$$

AZZ503-504-507>509-261400-
SOUTHEAST ARIZONA

CITY           SKY/WX    TMP DP  RH WIND       PRES   REMARKS
TUCSON         PTCLDY    52  48  86 S5        29.87R
RYAN FIELD       N/A     54  48  82 CALM      29.86
NOGALES        MOCLDY    50  45  83 CALM      29.88R
SAFFORD        CLOUDY    48  45  89 NW6       29.79S
$$

AZZ020-021-025-026-031-261400-
SOUTHWEST ARIZONA

CITY           SKY/WX    TMP DP  RH WIND       PRES   REMARKS
YUMA           CLEAR     57  46  66 W8        29.84R
$$

CAZ031-033-041-043-047-048-061-261400-
SOUTHERN CALIFORNIA

CITY           SKY/WX    TMP DP  RH WIND       PRES   REMARKS
DOWNTOWN L.A.  CLEAR     55  50  83 CALM      29.95R
L.A. AIRPORT   PTCLDY    53  50  89 NE7       29.96R
SAN DIEGO      MOCLDY    59  49  69 CALM      29.98R
BURBANK        CLEAR     59  39  47 CALM      29.95R
ONTARIO        MOCLDY    50  49  96 CALM      29.95R
RIVERSIDE      PTCLDY    50  47  89 CALM      29.96R
PALM SPRINGS   PTCLDY    59  40  49 CALM      29.88R
EL CENTRO NAS  CLEAR     56  40  55 SW5       29.87R
IMPERIAL       CLEAR     56  42  59 SW7       29.85R
BLYTHE         CLEAR     60  34  37 CALM      29.82R
$$

NVZ020-UTZ003-261400-
SOUTHERN NEVADA-UTAH

CITY           SKY/WX    TMP DP  RH WIND       PRES   REMARKS
LAS VEGAS      NOT AVBL
SALT LAKE CITY LGT RAIN  40  35  83 NW20      29.87R WCI  30
$$

NMZ009-TXZ055-261400-
NEW MEXICO-WEST TEXAS

CITY           SKY/WX    TMP DP  RH WIND       PRES   REMARKS
ALBUQUERQUE    RAIN      47  41  80 W7        29.79R
EL PASO        CLOUDY    61  26  26 SW13      29.77S
$$


........................KEY........................
SKY/WX - SKY CONDITION/WEATHER
TMP    - TEMPERATURE IN FAHRENHEIT
DP     - DEW POINT IN FAHRENHEIT
RH     - RELATIVE HUMIDITY IN PERCENT
WIND   - DIRECTION AND SPEED IN MILES PER HOUR (MPH)
VRB    - VARIABLE WIND DIRECTION
PRES   - MEAN SEA LEVEL PRESSURE IN INCHES OF MERCURY
         F - FALLING PRESSURE   R - RISING PRESSURE
         S - STEADY PRESSURE
VSB    - VISIBILITY IN MILES
HX     - HEAT INDEX IN FAHRENHEIT
WCI    - WIND CHILL INDEX IN FAHRENHEIT
TC     - TEMPERATURE IN CELSIUS WHICH IS ALSO KNOWN AS
         TEMPERATURE IN CENTIGRADE
AFB    - AIR FORCE BASE
         LUKE AFB IS LUKE AIR FORCE BASE
         DAVIS-MONTHAN IS DAVIS-MONTHAN AIR FORCE BASE
NAS    - NAVAL AIR STATION
         EL CENTRO NAS IS EL CENTRO NAVAL AIR STATION
N/A    - NOT AVAILABLE




USA.gov is the U.S. government's official web portal to all federal, state and local government web resources and services.